Погода в Шапошниково

Россия / Оренбургская область     51°41′36″N   51°17′34″E
темп.,
°C
ветер,
м/с
пор.,
м/с
влажн.,
%
обл.,
%
осадки,
мм/ч
давл.,
гПа
погр.,
м
23 мая, пн
пн2323:00+7вюв5888100 0.3 998480
02:00+7всв5893100 0.9 996510
05:00+7св4695100 1.3 996398
08:00+7ссв3493100 0.1 996303
11:00+8с3387100 0.3 998447
14:00+10ююв017690 0.0 1000567
17:00+12ю226594 0.1 10011025
20:00+11сз1175100 0.1 100114
24 мая, вт
вт2423:00+10с2284100 0.2 100365
02:00+9с3589100 0.1 1004182
05:00+7ссз349198 0.1 1005118
08:00+9ссз33785 0.0 1005357
11:00+12сз4357100 0.0 10061252
14:00+14ссз3347100 0.0 10071476
17:00+15ссз3343100 0.0 10071652
20:00+13ссз2454100 0.0 1007115
25 мая, ср
ср2523:00+10зсз2258100 0.0 100810
02:00+10юз1158100 0.0 100810
05:00+8юз3366100 0.0 100833
08:00+10сз4669100 0.0 1009268
11:00+14зсз565786 0.0 10101105
14:00+15з6751100 0.1 10101966
17:00+12сз765975 0.1 10111226
20:00+10сз566396 0.0 1012905
26 мая, чт
чт2623:00+8зсз347596 0.1 101397
02:00+7сз377925 0.1 1014181
05:00+5зсз34845 0.1 101477
08:00+8зсз46710 0.0 1015351
11:00+11з45515 0.0 10151531
14:00+14зюз564395 0.0 10152220
17:00+13з684699 0.0 10151904
20:00+13юз4755100 0.0 1014483
27 мая, пт
пт2723:00+9ююз5126847 0.0 1014239
02:00+10ю71672100 0.0 1011390
05:00+11ююз81867100 0.0 1009495
08:00+12ююз81678100 0.4 1008655
11:00+13ююз91681100 1.0 10071525
14:00+12юз81291100 2.0 1006905
17:00+16юз81169100 2.6 10051477
20:00+15юз7117359 1.1 1004586